FW8373 Weather Reports


time (UTC)temp
C
wind
direction
speed
KPH
gust
KPH
rain 1hr
cm
rain 24hr
cm
rain mn
cm
humidity
%
barometer
mb
20260505173201 26 68 4.8 12.9 0.00 0.03 0.03 82 1007.1
20260505172651 26 45 6.4 11.3 0.00 0.03 0.03 83 1007.1
20260505172142 26 68 6.4 14.5 0.00 0.03 0.03 83 1007.2
20260505171630 26 68 6.4 14.5 0.00 0.03 0.03 84 1007.2
20260505171127 26 68 6.4 12.9 0.00 0.03 0.03 82 1007.2
20260505165551 25 68 6.4 12.9 0.00 0.03 0.03 84 1007.5
20260505165039 25 68 4.8 12.9 0.00 0.03 0.03 85 1007.6
20260505164531 25 45 6.4 12.9 0.00 0.03 0.03 86 1007.7
20260505164021 25 45 4.8 12.9 0.03 0.03 0.03 87 1007.6
20260505163509 24 45 6.4 12.9 0.03 0.03 0.03 89 1007.8
20260505163001 24 68 8.0 14.5 0.03 0.03 0.03 89 1007.9
20260505162450 24 45 6.4 14.5 0.03 0.03 0.03 90 1007.7
20260505161939 24 45 6.4 12.9 0.03 0.03 0.03 92 1008.0
20260505161428 23 45 6.4 11.3 0.03 0.03 0.03 93 1007.9
20260505160410 23 68 3.2 14.5 0.03 0.03 0.03 95 1008.3
20260505153308 23 23 4.8 17.7 0.00 0.00 0.00 90 1008.7
20260505152757 23 45 9.7 17.7 0.00 0.00 0.00 89 1008.7
20260505152248 23 90 6.4 14.5 0.00 0.00 0.00 90 1008.9
20260505151742 23 68 6.4 11.3 0.00 0.00 0.00 90 1008.6
20260505151226 22 68 4.8 11.3 0.00 0.00 0.00 91 1008.9
20260505150716 22 90 6.4 11.3 0.00 0.00 0.00 91 1008.8
20260505150208 22 68 3.2 9.7 0.00 0.00 0.00 91 1009.3
20260505140516 21 68 4.8 9.7 0.00 0.00 0.00 94 1009.5
20260505130312 20 68 3.2 11.3 0.00 0.00 0.00 95 1009.4
20260505124746 20 45 6.4 14.5 0.00 0.00 0.00 95 1009.4
20260505124234 20 45 4.8 14.5 0.00 0.00 0.00 96 1009.4
20260505123213 20 68 6.4 14.5 0.00 0.00 0.00 97 1009.2
20260505122703 20 45 3.2 14.5 0.00 0.00 0.00 97 1009.1
20260505122152 20 90 6.4 11.3 0.00 0.00 0.00 98 1009.0
20260505121642 20 68 6.4 11.3 0.00 0.00 0.00 98 1009.0
20260505115601 19 45 6.4 12.9 0.00 0.00 0.00 99 1009.0
20260505115051 19 45 8.0 14.5 0.00 0.00 0.00 99 1008.8
20260505114542 19 68 4.8 14.5 0.00 0.00 0.00 99 1008.9
20260505114033 19 90 3.2 9.7 0.00 0.00 0.00 99 1008.7
20260505113520 18 45 6.4 11.3 0.00 0.00 0.00 99 1008.6
20260505113012 18 90 6.4 11.3 0.00 0.00 0.00 99 1008.7
20260505112502 18 90 4.8 11.3 0.00 0.00 0.00 99 1008.9
20260505111952 18 45 6.4 11.3 0.00 0.00 0.00 99 1008.8
20260505111442 18 68 4.8 11.3 0.00 0.00 0.00 99 1008.7
20260505110930 18 68 4.8 9.7 0.00 0.00 0.00 99 1008.8
20260505110420 18 135 3.2 11.3 0.00 0.00 0.00 99 1008.8
20260505101240 18 135 4.8 9.7 0.00 0.00 0.00 99 1008.2
20260505100728 18 135 4.8 11.3 0.00 0.00 0.00 99 1008.3
20260505095710 18 135 1.6 11.3 0.00 0.00 0.00 99 1008.1
20260505095158 18 158 6.4 11.3 0.00 0.00 0.00 99 1008.0
20260505093630 18 158 6.4 14.5 0.00 0.00 0.00 99 1007.9
20260505093117 18 135 6.4 14.5 0.00 0.00 0.00 99 1007.9
20260505092057 18 135 3.2 11.3 0.00 0.00 0.00 99 1007.9
20260505091546 18 135 6.4 11.3 0.00 0.00 0.00 99 1007.7
20260505091038 18 135 3.2 11.3 0.00 0.00 0.00 99 1008.0
20260505090525 18 135 4.8 11.3 0.00 0.00 0.00 99 1007.8
20260505090016 18 135 4.8 11.3 0.00 0.00 0.00 99 1007.7
20260505085507 18 135 6.4 11.3 0.00 0.00 0.00 99 1007.6
20260505084955 18 135 4.8 9.7 0.00 0.00 0.00 99 1007.8
20260505083936 18 135 3.2 9.7 0.00 0.00 0.00 99 1007.9
20260505082915 18 135 4.8 6.4 0.00 0.00 0.00 99 1007.9
20260505082406 18 135 4.8 9.7 0.00 0.00 0.00 99 1008.1
20260505081856 18 135 3.2 11.3 0.00 0.00 0.00 99 1008.1
20260505081345 18 135 6.4 11.3 0.00 0.00 0.00 99 1008.0
20260505080835 18 135 6.4 12.9 0.00 0.00 0.00 99 1008.2
20260505080325 18 135 6.4 12.9 0.00 0.00 0.00 99 1008.0
20260505074754 18 135 4.8 9.7 0.00 0.00 0.00 99 1007.8
20260505074257 18 135 4.8 9.7 0.00 0.00 0.00 99 1007.5
20260505073224 18 135 4.8 11.3 0.00 0.00 0.00 99 1008.0
20260505072713 18 135 6.4 9.7 0.00 0.00 0.00 99 1007.9
20260505072203 18 135 3.2 9.7 0.00 0.00 0.00 99 1008.0
20260505071653 18 135 6.4 9.7 0.00 0.00 0.00 99 1007.9
20260505071144 18 135 3.2 9.7 0.00 0.00 0.00 99 1008.2
20260505070633 18 135 4.8 9.7 0.00 0.00 0.00 99 1008.2
20260505070124 18 135 4.8 6.4 0.00 0.00 0.00 99 1008.1
20260505065612 18 135 3.2 6.4 0.00 0.00 0.00 99 1008.3
20260505065103 18 135 3.2 6.4 0.00 0.00 0.00 99 1008.2
20260505064552 18 135 1.6 6.4 0.00 0.00 0.00 99 1008.3
20260505064042 18 135 3.2 6.4 0.00 0.00 0.00 99 1008.1
20260505063022 18 135 3.2 6.4 0.00 0.00 0.00 98 1008.1
20260505062512 18 135 3.2 6.4 0.00 0.00 0.00 98 1008.4
20260505062002 18 135 3.2 9.7 0.00 0.00 0.00 98 1008.3
20260505060437 18 135 3.2 3.2 0.00 0.00 0.00 98 1008.4
20260505055723 18 135 1.6 6.4 0.00 0.00 0.00 98 1008.7
20260505055212 18 135 3.2 6.4 0.00 0.00 0.00 98 1008.6
20260505054702 18 113 4.8 6.4 0.00 0.00 0.00 98 1008.7
20260505054152 18 135 3.2 6.4 0.00 0.00 0.00 98 1008.7
20260505053641 18 135 3.2 6.4 0.00 0.00 0.00 98 1008.3
20260505053133 18 135 3.2 6.4 0.00 0.00 0.00 98 1008.6
20260505052113 18 135 0.0 6.4 0.00 0.00 0.00 98 1008.6
20260505051601 19 113 3.2 9.7 0.00 0.00 0.00 98 1008.6
20260505051053 19 135 3.2 9.7 0.00 0.00 0.00 98 1008.5
20260505041400 19 90 3.2 11.3 0.00 0.00 0.00 97 1008.2
20260505040850 19 90 3.2 11.3 0.00 0.00 0.00 97 1008.5
20260505040339 19 90 3.2 11.3 0.00 0.00 0.00 96 1008.7
20260505035830 19 68 3.2 11.3 0.00 0.00 0.00 96 1008.7
20260505035318 19 90 6.4 9.7 0.00 0.00 0.00 96 1008.6
20260505034809 19 90 3.2 9.7 0.00 0.00 0.00 96 1008.6
20260505034259 19 90 3.2 9.7 0.00 0.00 0.00 96 1008.7
20260505033753 19 90 3.2 9.7 0.00 0.00 0.00 95 1008.8
20260505033238 19 113 3.2 9.7 0.00 0.00 0.00 95 1008.7
20260505032729 19 90 3.2 9.7 0.00 0.00 0.00 95 1008.6
20260505032219 19 68 3.2 12.9 0.00 0.00 0.00 95 1008.7
20260505031708 19 68 3.2 12.9 0.00 0.00 0.00 95 1008.7
20260505031202 19 68 6.4 12.9 0.00 0.00 0.00 95 1008.7
20260505030647 19 68 4.8 11.3 0.00 0.00 0.00 95 1008.7
20260505030137 19 68 4.8 14.5 0.00 0.00 0.00 94 1008.5
20260505025628 19 68 8.0 17.7 0.00 0.00 0.00 94 1008.4
20260505025116 19 68 9.7 17.7 0.00 0.00 0.00 94 1008.4
20260505024608 19 68 4.8 9.7 0.00 0.00 0.00 94 1008.5
20260505024057 19 68 3.2 11.3 0.00 0.00 0.00 94 1008.3
20260505023547 19 68 3.2 11.3 0.00 0.00 0.00 94 1008.1
20260505023036 19 68 3.2 11.3 0.00 0.00 0.00 94 1008.2
20260505022527 19 68 6.4 12.9 0.00 0.00 0.00 94 1008.1
20260505022018 19 68 3.2 12.9 0.00 0.00 0.00 94 1008.1
20260505021508 19 45 6.4 14.5 0.00 0.00 0.00 94 1008.1
20260505020959 19 45 4.8 14.5 0.00 0.00 0.00 94 1008.1
20260505020446 19 45 6.4 12.9 0.00 0.00 0.00 94 1008.0
20260505015938 19 23 3.2 12.9 0.00 0.00 0.00 94 1008.0
20260505014916 19 45 6.4 14.5 0.00 0.00 0.00 94 1008.0
20260505013856 19 68 3.2 12.9 0.00 0.00 0.00 94 1008.0
20260505013346 19 45 4.8 12.9 0.00 0.00 0.00 94 1007.8
20260505012837 19 45 3.2 17.7 0.00 0.00 0.00 94 1008.0
20260505012324 19 45 6.4 17.7 0.00 0.00 0.00 94 1007.9
20260505011815 19 68 3.2 17.7 0.00 0.00 0.00 94 1008.0
20260505011305 19 45 3.2 17.7 0.00 0.00 0.00 94 1008.0
20260505010754 19 23 9.7 17.7 0.00 0.00 0.00 94 1007.9
20260505005735 19 23 4.8 12.9 0.00 0.00 0.00 93 1007.8
20260505005227 19 0 6.4 12.9 0.00 0.00 0.00 93 1007.8
20260505003704 18 45 6.4 11.3 0.00 0.00 0.00 93 1008.0
20260505002633 18 45 6.4 9.7 0.00 0.00 0.00 92 1008.0
20260505002123 18 45 4.8 11.3 0.00 0.00 0.00 92 1007.8
20260505001104 18 90 6.4 9.7 0.00 0.00 0.00 92 1007.6
20260505000554 18 23 3.2 11.3 0.00 0.00 0.00 92 1007.4
20260505000043 18 45 8.0 12.9 0.00 0.00 0.00 91 1007.6
20260504235533 18 45 4.8 12.9 0.00 0.00 0.00 91 1007.3
20260504235022 18 68 6.4 11.3 0.00 0.00 0.00 91 1007.2
20260504234512 18 23 4.8 11.3 0.00 0.00 0.00 90 1007.2
20260504234002 18 45 3.2 9.7 0.00 0.00 0.00 90 1007.2
20260504233457 18 68 4.8 9.7 0.00 0.00 0.00 89 1007.3
20260504231412 19 68 3.2 9.7 0.00 0.00 0.00 87 1006.9
20260504230903 19 68 4.8 11.3 0.00 0.00 0.00 87 1006.7
20260504230351 19 68 3.2 11.3 0.00 0.00 0.00 86 1006.6
20260504225841 19 68 3.2 6.4 0.00 0.00 0.00 85 1006.7
20260504225331 19 68 3.2 9.7 0.00 0.00 0.00 84 1006.8
20260504224820 19 68 3.2 9.7 0.00 0.00 0.00 83 1006.7
20260504224310 19 90 4.8 9.7 0.00 0.00 0.00 82 1006.7
20260504223252 19 90 3.2 11.3 0.00 0.00 0.00 80 1006.7
20260504222740 19 90 3.2 11.3 0.00 0.00 0.00 80 1006.4
20260504222230 20 90 3.2 9.7 0.00 0.00 0.00 79 1006.5
20260504221720 20 90 3.2 9.7 0.00 0.00 0.00 79 1006.6
20260504221211 20 90 3.2 6.4 0.00 0.00 0.00 78 1006.4
20260504220149 20 113 4.8 12.9 0.00 0.00 0.00 77 1006.2
20260504215639 20 90 3.2 12.9 0.00 0.00 0.00 76 1006.3
20260504215130 20 90 3.2 9.7 0.00 0.00 0.00 76 1006.3
20260504214620 20 90 3.2 9.7 0.00 0.00 0.00 75 1006.4
20260504214109 20 90 4.8 12.9 0.00 0.00 0.00 74 1006.3
20260504213558 20 90 4.8 12.9 0.00 0.00 0.00 73 1006.2
20260504213049 21 68 4.8 9.7 0.00 0.00 0.00 72 1006.1
20260504212028 21 90 4.8 9.7 0.00 0.00 0.00 70 1005.8
20260504211518 21 68 6.4 9.7 0.00 0.00 0.00 69 1005.8
20260504211008 21 68 3.2 9.7 0.00 0.00 0.00 68 1006.0
20260504210457 21 68 4.8 9.7 0.00 0.00 0.00 67 1006.1
20260504205950 21 68 4.8 11.3 0.00 0.00 0.00 67 1006.2
20260504205445 21 45 4.8 11.3 0.00 0.00 0.00 67 1006.4
20260504204418 21 45 6.4 9.7 0.00 0.00 0.00 66 1006.3
20260504203356 21 45 4.8 12.9 0.00 0.00 0.00 66 1006.4
20260504202847 21 45 8.0 12.9 0.00 0.00 0.00 66 1006.5
20260504202336 22 90 3.2 12.9 0.00 0.00 0.00 65 1006.3
20260504201828 22 68 6.4 14.5 0.00 0.00 0.00 65 1006.7
20260504201316 22 68 8.0 14.5 0.00 0.00 0.00 64 1006.8
20260504200256 22 23 8.0 17.7 0.00 0.00 0.00 64 1006.7
20260504195745 22 23 4.8 17.7 0.00 0.00 0.00 64 1006.8
20260504194725 22 68 9.7 17.7 0.00 0.00 0.00 64 1007.0
20260504194216 22 90 9.7 17.7 0.00 0.00 0.00 64 1006.8
20260504193155 23 90 4.8 17.7 0.00 0.00 0.00 61 1006.9
20260504192645 23 45 6.4 14.5 0.00 0.00 0.00 60 1006.8
20260504191626 22 90 8.0 14.5 0.00 0.00 0.00 60 1006.8
20260504191119 22 113 9.7 14.5 0.00 0.00 0.00 61 1007.2
20260504190606 22 113 9.7 14.5 0.00 0.00 0.00 61 1007.1
20260504190054 23 113 6.4 14.5 0.00 0.00 0.00 61 1007.2
20260504185037 22 113 8.0 17.7 0.00 0.00 0.00 62 1006.9
20260504184015 22 113 6.4 12.9 0.00 0.00 0.00 62 1007.1
20260504183503 22 90 6.4 14.5 0.00 0.00 0.00 62 1007.0
20260504182953 22 45 6.4 14.5 0.00 0.00 0.00 61 1007.1
20260504182447 22 45 6.4 12.9 0.00 0.00 0.00 63 1006.9
20260504181933 22 90 4.8 12.9 0.00 0.00 0.00 62 1007.3
20260504181424 22 68 6.4 12.9 0.00 0.00 0.00 62 1007.6
20260504180913 22 68 6.4 17.7 0.00 0.00 0.00 62 1007.4
20260504180402 22 90 8.0 17.7 0.00 0.00 0.00 62 1007.4
20260504175854 22 113 4.8 17.7 0.00 0.00 0.00 63 1007.7
20260504174832 22 113 4.8 14.5 0.00 0.00 0.00 64 1007.8
20260504174324 21 90 6.4 14.5 0.00 0.00 0.00 65 1008.0
20260504173812 21 68 9.7 20.9 0.00 0.00 0.00 65 1008.0